Location: Lecco
(45.8566°N, 9.3977°E)
Time: 07:27:18
(UTC+02:00)

Altair - Pass Details

Date: 21 August 2020
Orbit: 1501 x 1682 km, 47.2° (Epoch: 25 September)

Event Time Altitude Azimuth Distance (km) Brightness Sun altitude
Rises 06:38:20 0° 291° (WNW) 4,761 9.6 0.5°
Reaches altitude 10° 06:41:30 10° 288° (WNW) 3,751 9.1 1.1°
Maximum altitude 06:50:43 61° 211° (SSW) 1,695 7.6 2.6°
Drops below altitude 10° 06:59:41 10° 134° (SE) 3,649 10.0 4.1°
Sets 07:02:42 0° 131° (SE) 4,624 10.6 4.6°
